Location: Nelson
(41.2830°S, 173.2830°E)
Time: 18:55:55
(UTC+13:00)

Cosmos 2208 Rocket - Pass Details

Date: 24 January 2019
Orbit: 755 x 805 km, 74.0° (Epoch: 18 October)

Event Time Altitude Azimuth Distance (km) Brightness Sun altitude
Rises 21:58:45 0° 201° (SSW) 3,251 8.4 -10.9°
Reaches altitude 10° 22:01:08 10° 202° (SSW) 2,321 7.5 -11.3°
Maximum altitude 22:06:24 80° 287° (WNW) 788 4.1 -12.0°
Enters shadow 22:11:25 11° 14° (NNE) 2,226 5.9 -12.8°
